Location: Bourisp
(42.8283°N, 0.3385°E)
Time: 15:49:00
(UTC+00:00)

Daily predictions for brighter satellites

Satellite Brightness Start Highest point End
(mag) Time Altitude Azimuth Time Altitude Azimuth Time Altitude Azimuth
BREEZE-M DEB (TANK) 4.1 19:56:56 10° WNW 20:00:50 86° NNE 20:12:52 10° ESE
ATLAS 2AS CENTAUR R/B 2.8 20:04:10 10° NW 20:11:00 84° WSW 20:17:36 10° SSE
Cosmos 1833 4.3 20:07:03 10° SSW 20:12:41 89° WNW 20:18:20 10° NNE
SJ 16-02 1.3 20:12:49 10° SSW 20:17:07 77° ESE 20:21:27 10° NNE
Cosmos 2315 Rocket 4.2 20:13:22 10° N 20:19:45 65° E 20:26:03 10° SSE
Cosmos 2322 Rocket 2.8 20:14:41 10° NNW 20:20:15 57° WSW 20:25:48 10° S
COSMOS 2455 3.7 20:15:26 10° SSE 20:20:29 29° ESE 20:25:35 10° NE
Cosmos 2333 4.3 20:19:28 10° NNW 20:25:18 88° ENE 20:31:05 10° SSE
Cosmos 2297 Rocket 3.8 20:22:27 10° SE 20:25:22 14° E 20:28:17 10° ENE
Cosmos 1455 3.9 20:23:52 10° NNE 20:26:13 17° ENE 20:28:34 10° ESE
Okean 2 4.5 20:23:04 10° SSE 20:26:24 26° E 20:29:46 10° NNE
Okean 1-7 4.0 20:23:11 10° SSE 20:26:53 29° E 20:30:36 10° NNE
SeaSat 1 4.2 20:25:38 10° E 20:29:11 20° NE 20:32:45 10° N
Okean 3 3.6 20:27:44 10° S 20:31:47 54° E 20:35:53 10° NNE
Cosmos 2219 Rocket 2.3 20:28:21 10° NNW 20:34:03 77° ENE 20:39:43 10° SSE
Cosmos 1758 3.4 20:30:25 10° NNW 20:34:22 76° W 20:38:18 10° S
Okean-O 2.7 20:31:29 10° S 20:35:53 82° WSW 20:40:18 10° NNW
Cosmos 1862 Rocket 3.5 20:34:39 10° S 20:39:04 82° E 20:43:32 10° N
Cosmos 1356 Rocket 4.0 20:35:17 10° SSW 20:39:26 61° WNW 20:43:35 10° N
Okean O Rocket 3.0 20:38:26 10° SSW 20:42:27 36° W 20:46:30 10° NNW
USA 245 4.2 20:40:34 12° SE 20:44:24 50° ENE 20:49:30 10° N
Delta 2 Rocket 4.2 20:44:03 10° SW 20:46:28 19° S 20:47:39 16° SE
CZ-4 R/B 4.4 20:45:13 10° WSW 20:46:38 12° W 20:48:02 10° WNW
CZ-4C R/B 2.0 20:44:28 10° S 20:48:30 43° ESE 20:53:26 10° NE
Cosmos 1242 Rocket 2.9 20:47:12 17° SE 20:48:38 27° E 20:51:00 10° NE
Ariane Rocket 3.6 20:44:24 13° SE 20:48:40 41° ENE 20:53:25 10° N
Cosmos 2228 Rocket 3.8 20:44:18 10° SSW 20:48:47 58° W 20:53:18 10° N
Meteor 1-4 Rocket 2.1 20:46:32 10° SSW 20:49:30 80° W 20:52:32 10° N
Meteor 2-10 Rocket 4.3 20:44:37 10° NNW 20:49:48 51° W 20:54:47 10° S
MetOp-B 4.2 20:45:17 10° SSE 20:50:39 86° W 20:56:02 10° NNW
Terra 2.0 20:49:49 13° SSE 20:53:49 55° ENE 20:58:26 10° N
Meteor 2-20 4.5 20:50:54 10° N 20:57:05 90° NE 21:03:12 10° S
Cosmos 1707 Rocket 4.5 20:53:53 10° SSW 20:58:11 50° WNW 21:02:29 10° N
MOS 1 Rocket 3.8 20:54:47 14° SSE 20:59:11 55° ENE 21:04:11 10° N
Cosmos 839 Rocket 4.2 20:56:39 10° NW 21:03:13 70° WSW 21:08:24 15° SSE
Cosmos 2360 Rocket 3.7 20:59:21 10° NW 21:04:18 32° WSW 21:09:13 10° SSW
ARGOS Delta rocket 4.3 21:00:53 10° S 21:05:09 51° W 21:09:27 10° NNW
Cosmos 1953 2.3 21:03:11 10° N 21:06:58 61° E 21:09:25 20° SSE
COSMOS 2428 2.8 21:03:00 10° NNW 21:08:42 68° ENE 21:12:54 19° SE
USA 234 3.7 21:03:00 10° ENE 21:09:02 38° SE 21:15:01 10° SSW
SPOT 5 3.3 21:05:07 10° S 21:09:21 51° W 21:13:47 10° NNW
Cosmos 304 Rocket 4.5 21:09:39 18° SSE 21:12:25 33° ESE 21:16:41 10° NE
IRS-1C Rocket 4.4 21:08:38 11° S 21:13:38 65° WSW 21:18:52 10° NNW
Cosmos 1733 Rocket 4.3 21:09:48 10° NNW 21:13:55 39° W 21:18:02 10° SSW
ERS-1 Rocket 3.3 21:21:23 14° S 21:25:35 62° W 21:30:35 10° NNW
Cosmos 1315 Rocket 3.7 21:22:17 10° SSW 21:26:08 47° WNW 21:30:01 10° N
SL-4 R/B 2.0 21:26:39 10° WNW 21:30:30 63° SW 21:32:20 30° SE
SL-08 R/B 4.4 21:25:04 11° S 21:31:02 89° ESE 21:37:11 10° N
Cosmos 2084 Rocket 3.3 21:27:58 10° SW 21:32:19 89° SE 21:36:31 10° NE
Cosmos 1408 2.7 21:32:50 35° ESE 21:33:05 36° E 21:35:52 10° NNE
Cosmos 773 Rocket 4.5 21:31:16 10° N 21:36:16 48° ENE 21:39:00 25° SE
Cosmos 1908 Rocket 3.7 21:32:47 10° NNW 21:37:06 71° W 21:39:43 23° S
Cosmos 2242 Rocket 4.2 21:35:52 28° SE 21:37:40 40° E 21:41:55 10° NNE
BREEZE-M DEB (TANK) 2.2 21:38:46 10° WNW 21:40:55 65° SSW 21:41:58 37° SE
Cosmos 1782 Rocket 3.6 21:36:55 10° N 21:41:14 64° E 21:43:07 32° SSE
Cosmos 1709 Rocket 4.4 21:38:03 24° SSE 21:41:35 46° E 21:47:34 10° NNE
Cosmos 1300 Rocket 3.7 21:40:35 10° N 21:44:52 58° E 21:46:34 33° SE
SL-16 R/B 4.1 21:41:50 10° N 21:45:57 20° NE 21:50:00 10° E
Cosmos 2237 Rocket 2.5 21:41:43 10° NNW 21:47:18 56° ENE 21:50:16 27° SE
NOSS 3-2 (A) 4.2 21:48:36 23° ESE 21:48:52 23° ESE 21:53:13 10° ENE
Cosmos 2227 Rocket 2.8 21:47:45 28° SSE 21:49:52 38° ESE 21:55:03 10° NE
Landsat 4 4.4 21:53:29 28° SSW 21:54:49 41° W 21:58:06 10° NNW
Cosmos 1455 3.7 21:57:39 10° NNW 22:00:38 27° W 22:02:27 17° SW
EXPRESS MD2 3.6 21:59:21 10° NW 22:01:28 28° NNE 22:01:35 28° NNE
Meteor 2-5 Rocket 4.1 21:59:20 30° SSE 22:01:54 51° E 22:07:27 10° NNE
Cosmos 1980 3.7 21:56:20 10° NNW 22:02:02 77° ENE 22:04:42 33° SE
NOSS 0 Rocket 4.1 21:57:25 10° NNW 22:03:38 69° WSW 22:06:54 29° S
Cosmos 1777 Rocket 3.9 22:01:00 27° S 22:03:57 73° ESE 22:09:13 10° NNE
ARIANE 5 R/B 3.6 22:03:45 28° ESE 22:05:03 34° ENE 22:09:01 10° N
GP-B 3.0 22:00:44 10° N 22:05:09 85° E 22:06:48 38° S
Landsat 5 3.7 22:01:30 10° N 22:05:40 68° WNW 22:08:06 25° SSW
Cosmos 1825 4.1 22:06:40 14° ENE 22:06:40 14° ENE 22:08:03 10° NE
COSMOS 2455 3.8 22:00:19 10° SW 22:06:08 49° NW 22:12:00 10° NNE
SeaSat 1 2.6 22:04:02 33° S 22:06:11 66° WSW 22:11:06 10° NNW
Cosmos 2297 Rocket 2.3 22:03:20 12° SSW 22:08:37 79° WNW 22:14:18 10° NNE
Cosmos 1174 3.8 22:05:33 10° NNW 22:10:10 78° ENE 22:11:05 51° SE
Cosmos 1703 3.0 22:10:39 59° SSE 22:11:10 70° E 22:14:50 10° NNE
MetOp-A 4.1 22:09:42 32° S 22:12:09 74° WSW 22:17:19 10° NNW
Cosmos 1503 Rocket 4.1 22:11:46 19° SSW 22:15:38 75° WNW 22:20:56 10° NNE
Cosmos 2219 Rocket 4.4 22:14:06 10° WNW 22:17:16 15° W 22:20:24 10° SW
Cosmos 2219 3.7 22:23:58 36° SE 22:25:00 39° ESE 22:30:12 10° NE
SL-23 DEB 4.4 22:21:16 10° WSW 22:25:02 74° NNW 22:31:20 10° ENE
Cosmos 1461 4.3 22:26:32 22° E 22:26:32 22° E 22:28:29 10° NE
CENTAUR R/B 2.2 22:22:27 25° SSW 22:25:51 75° ESE 22:32:37 10° NE
Cosmos 2263 Rocket 3.1 22:27:07 29° ESE 22:27:34 29° ESE 22:32:18 10° NE
Cosmos 1892 3.5 22:31:14 33° ENE 22:31:14 33° ENE 22:33:58 10° NNE
Terra 4.1 22:28:52 10° SW 22:31:44 16° W 22:34:37 10° NW
Cosmos 2151 Rocket 4.0 22:28:52 10° N 22:33:06 46° ENE 22:33:47 42° ESE
Meteor 1-24 Rocket 3.7 22:32:42 34° SSW 22:35:16 85° W 22:40:49 10° N
CZ-4C R/B 4.0 22:33:02 10° W 22:37:05 28° NW 22:41:59 10° NNE
Okean 2 Rocket 3.5 22:33:12 10° N 22:37:34 48° ENE 22:38:18 43° ESE
ALOS 2 3.7 22:46:36 30° E 22:47:26 33° ENE 22:51:23 10° N
Cosmos 1898 Rocket 4.4 22:48:08 31° ESE 22:48:20 31° E 22:52:50 10° NE
Cosmos 292 Rocket 4.3 22:49:43 41° ESE 22:49:51 41° ESE 22:54:23 10° NE
Cosmos 405 Rocket 2.7 22:48:10 10° NNW 22:51:55 64° W 22:51:59 64° WSW
USA 234 3.6 22:45:46 10° NE 22:52:15 67° NW 22:58:42 10° WSW
H-2A R/B 4.2 22:55:31 10° ENE 22:57:02 13° E 22:57:02 13° E
PSLV R/B 3.8 22:53:56 10° N 22:57:54 75° WNW 22:58:17 67° WSW
USA 281 3.2 22:56:14 38° SE 22:58:59 79° ENE 23:05:35 10° NNW
Cosmos 2074 Rocket 4.0 22:58:51 44° SSE 23:00:45 65° E 23:06:55 10° NNE
Aureole 1 Rocket 3.2 23:05:07 54° E 23:05:07 54° E 23:09:41 10° NNE
Cosmos 990 Rocket 3.9 23:04:48 48° SSW 23:06:15 82° WNW 23:11:25 10° NNE
Cosmos 2181 Rocket 3.9 23:01:04 10° N 23:07:14 80° W 23:09:14 45° S
TIMED 4.4 23:08:04 68° ESE 23:08:04 68° ESE 23:12:21 10° NNE
Cosmos 2221 Rocket 3.5 23:07:38 68° SSW 23:08:09 82° W 23:12:35 10° N
Cosmos 1328 4.0 23:09:17 56° ENE 23:09:17 56° ENE 23:12:45 10° NNE
Okean 1 Rocket 2.9 23:09:24 10° N 23:13:48 74° E 23:14:06 71° ESE
Cosmos 1295 Rocket 4.4 23:12:40 48° SSE 23:14:25 72° E 23:20:34 10° NNE
Cosmos 2098 Rocket 4.4 23:10:11 10° NNW 23:16:17 49° W 23:18:14 36° SW
Sich 1 Rocket 3.6 23:12:30 10° NNW 23:16:50 64° W 23:17:10 61° WSW
Meteor 1-21 Rocket 4.4 23:21:21 48° SE 23:22:28 56° E 23:27:58 10° NNE
Cosmos 1025 Rocket 3.0 23:23:55 67° E 23:23:55 67° E 23:28:09 10° NNE
Cosmos 372 Rocket 4.0 23:26:39 56° SE 23:27:12 60° ESE 23:32:20 10° NNE
SL-16 R/B 2.2 23:24:58 10° NNW 23:30:40 74° WSW 23:31:50 56° S
Cosmos 2237 Rocket 3.7 23:26:42 10° NW 23:30:52 22° W 23:32:05 20° WSW
Cosmos 1975 Rocket 3.8 23:31:37 39° E 23:31:37 39° E 23:35:41 10° NNE
H-2A R/B 2.9 23:32:04 50° WSW 23:32:06 50° W 23:36:11 10° NNW
Cosmos 2227 Rocket 3.6 23:29:29 13° WSW 23:33:55 34° NW 23:39:02 10° N
Cosmos 1943 4.1 23:30:42 10° NNW 23:36:00 41° ENE 23:38:26 27° ESE
Cosmos 2082 3.6 23:36:07 49° SW 23:37:42 81° WNW 23:43:21 10° NNE
NOSS 3-2 (A) 3.8 23:35:54 23° WSW 23:39:01 53° NW 23:45:01 10° NNE
Cosmos 1825 3.6 23:40:07 27° WNW 23:40:07 27° WNW 23:42:53 10° NNW
ARIANE 5 R/B 4.3 23:41:12 22° W 23:41:31 22° W 23:44:55 10° NW
Nadezhda 3 Rocket 3.9 23:35:28 10° N 23:41:43 88° ENE 23:43:26 51° S
Cosmos 1455 Rocket 3.2 23:37:32 10° N 23:41:58 62° E 23:42:11 61° E
NOSS 3-2 (C) 3.0 23:49:28 56° SSW 23:50:41 89° SE 23:56:45 10° NE
Cosmos 858 Rocket 4.4 23:50:30 60° SE 23:51:03 65° ESE 23:56:14 10° NNE
